Location: Nasgenstadt
(48.2786°N, 9.7553°E)
Time: 18:06:27
(UTC+02:00)

ISS - Pass Details

Date: 30 March 2017
Orbit: 401 x 409 km, 51.6° (Epoch: 29 April)

Event Time Altitude Azimuth Distance (km) Brightness Sun altitude
Rises 22:13:31 0° 263° (W) 2,320 0.7 -23.0°
Reaches altitude 10° 22:15:37 10° 267° (W) 1,463 -0.4 -23.3°
Enters shadow 22:17:57 39° 292° (WNW) 627 -2.4 -23.6°
